Regional Weather Roundup
Issued by NWS

Home | Current Version | Previous Version | Text Only | Print | Product List | Glossary Off
Versions: 1 2 3 4 5 6 7 8 9 10 11 12 13 14 15 16 17 18 19 20 21 22 23 24 25 26 27

000
ASUS45 KTFX 271410
RWRMT
MONTANA REGIONAL WEATHER ROUNDUP
NATIONAL WEATHER SERVICE GREAT FALLS MT
800 AM MDT SAT AUG 27 2016

NOTE: "FAIR" INDICATES FEW OR NO CLOUDS BELOW 12000 FEET WITH NO
SIGNIFICANT WEATHER AND/OR OBSTRUCTIONS TO VISIBILITY.

MTZ001>007-043-271500-
WEST OF THE DIVIDE

CITY           SKY/WX    TMP DP  RH WIND       PRES   REMARKS
KALISPELL      MOSUNNY   55  48  77 N7        29.82S
MISSOULA       PTSUNNY   53  41  63 CALM      29.93R
BUTTE          CLOUDY    44  31  60 CALM      30.03S
MULLAN PASS    CLEAR     55  33  43 VRB3      29.97S
DEER LODGE       N/A     55  34  44 CALM      29.99S
EUREKA           N/A     64  41  42 SE15      29.75S
HAMILTON         N/A     57  32  38 S18       29.93R
LIBBY            N/A     52  41  66 CALM      29.78S
RONAN            N/A     59  44  57 NE3       29.91S
$$

MTZ008-052>055-271500-
SOUTHWEST MONTANA

CITY           SKY/WX    TMP DP  RH WIND       PRES   REMARKS
BOZEMAN        MOSUNNY   49  38  65 S5        30.00R
DILLON         CLOUDY    52  30  43 S14       30.02R
W YELLOWSTONE  CLOUDY    37  27  65 CALM      30.15R
ENNIS          SUNNY     55  30  38 S13       30.08R
THREE FORKS      N/A     43  43 100 CALM      29.98S
TWIN BRIDGES     N/A     48  33  56 SE6       30.01R
$$

MTZ009-010-012-014-046-048-049-054-271500-
EAST SLOPES AND CENTRAL MONTANA

CITY           SKY/WX    TMP DP  RH WIND       PRES   REMARKS
CUT BANK       CLOUDY    59  40  49 S6        29.78F
GREAT FALLS    CLOUDY    64  37  36 SW15      29.84S
MALMSTROM AFB  CLOUDY    60  40  47 MISG      29.83S
HELENA         MOSUNNY   56  39  53 CALM      29.93F
CHOTEAU          N/A     63  37  39 SW7       29.85S
$$

MTZ011-013-016-021-045-047-050-051-271500-
NORTH CENTRAL MONTANA

CITY           SKY/WX    TMP DP  RH WIND       PRES   REMARKS
HAVRE          CLOUDY    52  45  77 E3        29.78S
LEWISTOWN      CLOUDY    53  41  63 SE6       29.89S
N BAR RANCH      N/A     52  41  66 NW3       29.93S
CHINOOK          N/A     52  46  82 E8        29.79S
$$

MTZ017>020-022>027-061-062-271500-
NORTHEAST MONTANA

CITY           SKY/WX    TMP DP  RH WIND       PRES   REMARKS
GLASGOW        SUNNY     53  45  74 SE10      29.86F
JORDAN           N/A     51  47  86 CALM      29.87F
SIDNEY         SUNNY     50  46  86 S6        29.93R
WOLF POINT     SUNNY     50  44  80 E7        29.90S
POPLAR           N/A     54  45  71 CALM      29.91S
SCOBEY           N/A     44  40  86 CALM      29.89S
$$

MTZ028>42-056>058-271500-
SOUTHCENTRAL AND SOUTHEAST MONTANA

CITY           SKY/WX    TMP DP  RH WIND       PRES   REMARKS
BAKER          SUNNY     52  47  83 CALM      29.96S
BILLINGS       PTSUNNY   53  41  63 SW9       29.93S
LIVINGSTON     CLOUDY    46  36  68 NW13      29.98R
MILES CITY     SUNNY     54  44  69 S8        29.92S
FORSYTH          N/A     55  52  88 CALM      29.90S
LAUREL           N/A     51  41  69 SW1       29.93S
ROUNDUP          N/A     48  39  71 S9        29.84S
$$

REGIONAL REPORTS...DAKOTAS

CITY           SKY/WX    TMP DP  RH WIND       PRES   REMARKS
WILLISTON      SUNNY     54  46  74 CALM      29.93R
MINOT          MOSUNNY   55  52  89 SW6       29.92R
DICKINSON      SUNNY     56  48  74 SW7       29.94R
CROSBY           N/A     54  54 100 SW5       29.93S
WATFORD CITY     N/A     52  50  93 CALM      29.94R
BISMARCK       SUNNY     58  54  86 SW5       29.94F
GRAND FORKS    CLOUDY    60  58  92 SE10      29.95R
FARGO          CLOUDY    63  59  87 S13       29.97R
BUFFALO SD       N/A     50  49  96 SW3       29.91S
RAPID CITY     SUNNY     60  53  77 S3        30.00S
$$

REGIONAL REPORTS...WYOMING/IDAHO/WASHINGTON

CITY           SKY/WX    TMP DP  RH WIND       PRES   REMARKS
GILLETTE       SUNNY     56  51  84 S16       30.00S
SHERIDAN       CLOUDY    52  47  83 S3        29.97S
BUFFALO WY     SUNNY     56  41  57 VRB6      30.01F
CODY           CLOUDY    48  41  76 CALM      30.02S
YELLOWSTONE LA   N/A     35  30  82 CALM      30.22R
IDAHO FALLS    SUNNY     50  34  54 CALM      30.07R
SALMON         MOSUNNY   43  37  81 CALM      30.04S
BOISE          CLEAR     58  36  43 E3        29.95R
SPOKANE        MOCLDY    64  37  36 S9        29.77S
$$

REGIONAL REPORTS...ALBERTA

CITY           SKY/WX    TMP DP  RH WIND       PRES   REMARKS
EDMONTON       PTSUNNY   59  50  72 S6        29.56F
CALGARY        PTSUNNY   59  46  63 SW3       29.64F
LETHBRIDGE     PTSUNNY   66  45  45 SW14G23   29.69S
MEDICINE HAT   PTSUNNY   57  48  72 SW8       29.67F
WATERTON GATE    N/A     61  41  48 SW8         N/A
MILK RIVER       N/A     59  43  55 SE5         N/A
ONEFOUR          N/A     50  43  76 E12         N/A
$$

REGIONAL REPORTS...SASKATCHEWAN

CITY           SKY/WX    TMP DP  RH WIND       PRES   REMARKS
SWIFT CURRENT  SUNNY     54  46  76 S17       29.78F
REGINA         MOSUNNY   50  46  87 SE6       29.87S
SASKATOON      PTSUNNY   55  52  88 S8        29.81F
CYPRESS HILLS    N/A     50  41  71 S8          N/A
VAL MARIE        N/A     54  48  82 E1          N/A
ROCKGLEN         N/A     52  46  82 S9          N/A
ASSINIBOIA       N/A     55  50  82 S5          N/A
$$




USA.gov is the U.S. government's official web portal to all federal, state and local government web resources and services.